Location: *
(43.0167°S, 179.9000°E)
Time: 20:05:57
(UTC+00:00)

Meteor 1-21 Rocket - Pass Details

Date: 12 August 2024
Orbit: 833 x 906 km, 81.2° (Epoch: 19 September)

Event Time Altitude Azimuth Distance (km) Brightness Sun altitude
Rises 17:04:09 0° 356° (N) 3,512 7.4 -21.1°
Reaches altitude 10° 17:06:37 10° 357° (N) 2,572 6.7 -20.6°
Maximum altitude 17:12:29 80° 82° (E) 915 4.4 -19.5°
Drops below altitude 10° 17:18:19 10° 168° (SSE) 2,559 6.8 -18.5°
Sets 17:20:46 0° 168° (SSE) 3,493 7.5 -18.0°
